Date String (YYYY-MM-DD hh:mm:ss) UTC,Instrument flags,absolute air pressure of the measurement (hPa),sample flow rate (lpm),inlet stack bypass flow (lpm),air temperature of the measurement (°C),ambient temperature measured by the external sensor (°C),aerosol sample conditioner tube jacket temperature (°C),OPC LED temperature (°C),internal box temperature (°C),relative humidity of the measurement (%),span deviation,mass concentration of particles derived from Lorenz-Mie calculation of OPC scattering (μg/m³),mass concentration of particles derived from Lorenz-Mie calculation of OPC scattering (μg/m³),mass concentration of particles derived from Lorenz-Mie calculation of OPC scattering (μg/m³)
DateTimeUTC,F1_M11,P_M11,Q1_M11,Q2_M11,T1_M11,T2_M11,T3_M11,T4_M11,T5_M11,U1_M11,ZSPAN_M11,X0_M11,X2_M11,X1_M11
2023-07-29 18:00:00,SystemResetWarning,0838.4,5.01,000.00,030.7,027.5,000.0,038.2,031.1,31.6,0000.0,0012.86,0006.15,0005.14
2023-07-29 18:01:00,SystemResetWarning,0838.4,5.01,000.00,030.7,027.8,000.0,038.3,031.2,31.8,0000.0,0012.64,0006.12,0005.12
2023-07-29 18:02:00,SystemResetWarning,0838.4,4.99,000.00,030.8,027.9,000.0,038.3,031.2,31.4,0000.0,0012.76,0006.10,0005.09
2023-07-29 18:03:00,SystemResetWarning,0838.4,4.98,000.00,030.8,026.8,000.0,038.3,031.1,31.7,0000.0,0012.46,0006.05,0005.06
2023-07-29 18:04:00,SystemResetWarning,0838.4,5.01,000.00,030.7,025.5,000.0,038.2,030.9,32.1,0000.0,0012.48,0006.03,0005.03
2023-07-29 18:05:00,SystemResetWarning,0838.3,5.01,000.00,030.7,025.2,000.0,038.2,030.7,32.7,0000.0,0012.99,0005.99,0005.02
2023-07-29 18:06:00,SystemResetWarning,0838.3,5.01,000.00,030.5,025.4,000.0,038.3,030.6,33.1,0000.0,0013.02,0005.94,0005.02
2023-07-29 18:07:00,SystemResetWarning,0838.3,5.00,000.00,030.4,025.8,000.0,038.3,030.6,33.5,0000.0,0012.39,0005.99,0005.04
2023-07-29 18:08:00,SystemResetWarning,0838.3,5.00,000.00,030.4,026.3,000.0,038.4,030.7,34.2,-000.2,0012.59,0006.03,0005.07
2023-07-29 18:09:00,SystemResetWarning,0838.3,5.01,000.00,030.4,026.7,000.0,038.4,030.8,34.1,-001.2,0012.69,0006.04,0005.07
2023-07-29 18:10:00,SystemResetWarning,0838.3,5.00,000.00,030.4,027.0,000.0,038.4,030.9,33.7,-001.9,0012.80,0006.04,0005.06
2023-07-29 18:11:00,SystemResetWarning,0838.4,5.00,000.00,030.4,027.3,000.0,038.4,031.0,33.8,-002.3,0012.68,0006.01,0005.03
2023-07-29 18:12:00,SystemResetWarning,0838.3,4.99,000.00,030.4,027.6,000.0,038.5,031.1,34.5,-002.1,0013.10,0006.02,0005.02
2023-07-29 18:13:00,SystemResetWarning,0838.4,5.00,000.00,030.4,027.8,000.0,038.5,031.1,34.1,0000.0,0013.74,0006.01,0005.02
2023-07-29 18:14:00,SystemResetWarning,0838.4,4.98,000.00,030.4,027.0,000.0,038.4,031.1,33.8,0000.0,0014.06,0005.96,0005.00
2023-07-29 18:15:00,SystemResetWarning,0838.4,5.00,000.00,030.3,025.6,000.0,038.3,030.9,33.8,0000.0,0013.98,0005.90,0004.96
2023-07-29 18:16:00,SystemResetWarning,0838.4,5.01,000.00,030.3,025.2,000.0,038.2,030.7,34.0,-001.1,0014.08,0005.89,0004.93
2023-07-29 18:17:00,SystemResetWarning,0838.4,5.01,000.00,030.1,025.3,000.0,038.2,030.6,34.3,-000.2,0014.14,0005.87,0004.88
2023-07-29 18:18:00,SystemResetWarning,0838.4,4.99,000.00,030.0,025.7,000.0,038.2,030.6,34.0,-001.7,0013.95,0005.76,0004.82
2023-07-29 18:19:00,SystemResetWarning,0838.4,4.98,000.00,030.0,026.1,000.0,038.2,030.7,33.7,-001.1,0013.76,0005.69,0004.76
2023-07-29 18:20:00,SystemResetWarning,0838.4,4.99,000.00,030.0,026.6,000.0,038.2,030.8,34.0,-000.2,0013.67,0005.69,0004.73
2023-07-29 18:21:00,SystemResetWarning,0838.4,5.01,000.00,030.0,026.9,000.0,038.2,030.9,33.8,-000.2,0013.28,0005.64,0004.70
2023-07-29 18:22:00,SystemResetWarning,0838.4,5.01,000.00,030.0,027.3,000.0,038.2,030.9,34.0,0000.0,0013.22,0005.57,0004.67
2023-07-29 18:23:00,SystemResetWarning,0838.4,4.98,000.00,030.0,027.6,000.0,038.2,031.0,33.8,0000.0,0013.05,0005.55,0004.65
2023-07-29 18:24:00,SystemResetWarning,0838.4,4.99,000.00,030.0,027.8,000.0,038.2,031.1,33.6,0000.0,0012.06,0005.50,0004.64
2023-07-29 18:25:00,SystemResetWarning,0838.4,5.00,000.00,030.0,027.3,000.0,038.2,031.1,33.4,0000.0,0011.61,0005.54,0004.65
2023-07-29 18:26:00,SystemResetWarning,0838.4,5.01,000.00,030.0,025.8,000.0,038.0,030.8,33.7,0000.0,0011.77,0005.56,0004.66
2023-07-29 18:27:00,SystemResetWarning,0838.3,5.00,000.00,029.9,025.1,000.0,037.9,030.6,34.1,0000.0,0011.16,0005.58,0004.68
2023-07-29 18:28:00,SystemResetWarning,0838.4,5.01,000.00,029.8,025.2,000.0,037.9,030.5,33.5,0000.0,0011.16,0005.61,0004.70
2023-07-29 18:29:00,SystemResetWarning,0838.4,5.01,000.00,029.7,025.6,000.0,038.0,030.5,33.8,0000.0,0011.44,0005.73,0004.72
2023-07-29 18:30:00,SystemResetWarning,0838.4,4.99,000.00,029.6,026.1,000.0,038.0,030.6,33.7,0000.0,0012.28,0005.73,0004.74
2023-07-29 18:31:00,SystemResetWarning,0838.3,5.00,000.00,029.6,026.5,000.0,038.0,030.6,33.3,0000.0,0013.40,0005.74,0004.75
2023-07-29 18:32:00,SystemResetWarning,0838.3,5.00,000.00,029.6,026.9,000.0,038.0,030.7,33.4,0000.0,0013.98,0005.79,0004.76
2023-07-29 18:33:00,SystemResetWarning,0838.3,5.01,000.00,029.6,027.2,000.0,038.0,030.8,32.9,0000.0,0014.29,0005.88,0004.78
2023-07-29 18:34:00,SystemResetWarning,0838.3,4.99,000.00,029.7,027.5,000.0,038.0,030.9,32.7,0000.0,0014.36,0005.91,0004.79
2023-07-29 18:35:00,SystemResetWarning,0838.2,5.00,000.00,029.7,027.7,000.0,038.0,031.0,32.5,-001.7,0014.43,0005.93,0004.80
2023-07-29 18:36:00,SystemResetWarning,0838.3,5.00,000.00,029.7,027.9,000.0,038.0,031.0,33.4,0000.0,0014.57,0005.94,0004.80
2023-07-29 18:37:00,SystemResetWarning,0838.2,4.99,000.00,029.7,027.0,000.0,037.9,031.0,34.1,-003.3,0015.28,0005.96,0004.82
2023-07-29 18:38:00,SystemResetWarning,0838.2,5.00,000.00,029.7,025.6,000.0,037.8,030.7,33.8,-003.5,0016.36,0005.99,0004.83
2023-07-29 18:39:00,SystemResetWarning,0838.1,5.00,000.00,029.6,025.2,000.0,037.7,030.6,34.3,-003.3,0016.09,0005.99,0004.83
2023-07-29 18:40:00,SystemResetWarning,0838.2,5.00,000.00,029.5,025.4,000.0,037.7,030.4,34.1,-002.9,0015.95,0005.92,0004.82
2023-07-29 18:41:00,SystemResetWarning,0838.2,5.01,000.00,029.4,025.8,000.0,037.8,030.5,33.6,-003.1,0015.66,0005.91,0004.82
2023-07-29 18:42:00,SystemResetWarning,0838.2,5.00,000.00,029.4,026.2,000.0,037.8,030.5,33.7,-000.9,0014.23,0005.90,0004.80
2023-07-29 18:43:00,SystemResetWarning,0838.1,5.00,000.00,029.4,026.6,000.0,037.8,030.6,34.3,0000.0,0013.73,0005.87,0004.78
2023-07-29 18:44:00,SystemResetWarning,0838.2,5.00,000.00,029.4,027.0,000.0,037.8,030.7,34.2,0000.0,0013.65,0005.79,0004.75
2023-07-29 18:45:00,SystemResetWarning,0838.2,4.99,000.00,029.4,027.3,000.0,037.8,030.8,34.2,0000.0,0013.86,0005.82,0004.74
2023-07-29 18:46:00,SystemResetWarning,0838.2,4.98,000.00,029.5,027.6,000.0,037.8,030.9,35.2,0000.0,0013.99,0005.78,0004.71
2023-07-29 18:47:00,SystemResetWarning,0838.2,5.04,000.00,029.6,027.8,000.0,037.8,031.0,34.4,-001.1,0013.96,0005.74,0004.70
2023-07-29 18:48:00,SystemResetWarning,0838.2,4.96,000.00,029.7,027.2,000.0,037.8,031.0,33.7,-000.0,0013.68,0005.72,0004.70
2023-07-29 18:49:00,SystemResetWarning,0838.2,5.04,000.00,029.8,025.7,000.0,037.7,030.8,33.2,0000.0,0012.78,0005.70,0004.70
2023-07-29 18:50:00,SystemResetWarning,0838.2,4.98,000.00,029.7,025.2,000.0,037.6,030.6,33.5,0000.0,0012.74,0005.64,0004.69
2023-07-29 18:51:00,SystemResetWarning,0838.1,5.00,000.00,029.6,025.3,000.0,037.6,030.4,33.7,0000.0,0012.71,0005.66,0004.70
2023-07-29 18:52:00,SystemResetWarning,0838.1,5.01,000.00,029.6,025.7,000.0,037.7,030.4,34.3,0000.0,0012.26,0005.64,0004.69
2023-07-29 18:53:00,SystemResetWarning,0838.1,5.00,000.00,029.6,026.1,000.0,037.7,030.5,34.8,0000.0,0012.18,0005.62,0004.69
2023-07-29 18:54:00,SystemResetWarning,0838.1,5.01,000.00,029.6,026.5,000.0,037.7,030.6,34.4,-001.9,0012.46,0005.59,0004.69
2023-07-29 18:55:00,SystemResetWarning,0838.1,4.99,000.00,029.7,026.9,000.0,037.8,030.7,34.3,-001.2,0012.18,0005.63,0004.71
2023-07-29 18:56:00,SystemResetWarning,0838.1,5.00,000.00,029.7,027.2,000.0,037.8,030.8,34.3,0000.0,0012.09,0005.61,0004.73
2023-07-29 18:57:00,SystemResetWarning,0838.1,4.99,000.00,029.8,027.5,000.0,037.8,030.9,35.0,0000.0,0012.12,0005.65,0004.75
2023-07-29 18:58:00,SystemResetWarning,0838.1,5.03,000.00,029.9,027.8,000.0,037.9,031.0,33.9,0000.0,0012.08,0005.67,0004.75
2023-07-29 18:59:00,SystemResetWarning,0838.1,4.98,000.00,030.0,027.5,000.0,037.9,031.0,33.5,0000.0,0011.84,0005.67,0004.74
